Starlink 6085

operational
NORAD ID: 57115 Int'l Des: 2023-090 Owner: SPXS Country: US Constellation: starlink
LEOCIRCULAR

关于 Starlink 6085

正在加载描述...

实时位置

正在加载3D地球...

即将过境

高度历史

Altitude vs Time

uPlot chart will show altitude changes over time

两行轨道根数

1 57115U 23090Q 25304.83454479 .00013000 00000-0 85243-3 0 9990
2 57115 42.9987 251.9858 0008679 101.6538 258.5280 15.07564036131060
Epoch: Oct 31, 2025 • Age: 15 hours

当前状态

高度 540.4 km
速度 7.60 km/s
星下点 5.34°N, 144.65°W
发射日期 Jun 23, 2023
运行时间 2.3 years
类型 internet

技术详情

分类 Payload
质量 305.00 kg
干质量 290.00 kg
总质量 305.00 kg
长度 0.20 m
直径 2.80 m
跨度 9.00 m
形状 Box + pan
制造商 SPXS
平台类型 Starlink
阶段状态 In Orbit
所有者/国家 SPXS/US

大型星座

Loading constellations...